This is the latest recevied weather packets stored in our database for station/object KN6DHD. If no packets are shown the sender has not sent any weather packets the latest 10 day(s).
| Time | Temp. | Humidity | Pressure | Rain* | Wind** | Luminosity | Snow |
|---|---|---|---|---|---|---|---|
| 1777427440 | 23.89° C | 43% | 1017.4 hPa | 0 mm | - | 27 W/m² | - |
| 1777427135 | 23.89° C | 43% | 1017.5 hPa | 0 mm | - | 29 W/m² | - |
| 1777426834 | 23.89° C | 42% | 1017.7 hPa | 0 mm | - | 31 W/m² | - |
| 1777426531 | 23.89° C | 41% | 1017.6 hPa | 0 mm | - | 32 W/m² | - |
| 1777426227 | 23.89° C | 42% | 1017.7 hPa | 0 mm | - | 33 W/m² | - |
| 1777425921 | 23.89° C | 43% | 1017.2 hPa | 0 mm | - | 37 W/m² | - |
| 1777425617 | 23.89° C | 43% | 1017.5 hPa | 0 mm | - | 39 W/m² | - |
| 1777425313 | 24.44° C | 43% | 1017.4 hPa | 0 mm | - | 39 W/m² | - |
| 1777425010 | 23.89° C | 42% | 1017.3 hPa | 0 mm | - | 40 W/m² | - |
| 1777424704 | 23.89° C | 42% | 1017.6 hPa | 0 mm | - | 42 W/m² | - |
| 1777424394 | 23.89° C | 43% | 1017.6 hPa | 0 mm | - | 43 W/m² | - |
| 1777424090 | 23.89° C | 44% | 1017.7 hPa | 0 mm | - | 46 W/m² | - |
| 1777423789 | 24.44° C | 43% | 1017.6 hPa | 0 mm | - | 48 W/m² | - |
| 1777423484 | 23.89° C | 43% | 1017.7 hPa | 0 mm | - | 170 W/m² | - |
| 1777423179 | 23.89° C | 43% | 1017.7 hPa | 0 mm | - | 56 W/m² | - |
| 1777422873 | 24.44° C | 43% | 1017.7 hPa | 0 mm | - | 53 W/m² | - |
| 1777422569 | 25° C | 42% | 1017.8 hPa | 0 mm | - | 65 W/m² | - |
| 1777422265 | 25° C | 43% | 1017.7 hPa | 0 mm | - | 262 W/m² | - |
| 1777421965 | 24.44° C | 44% | 1017.8 hPa | 0 mm | - | 294 W/m² | - |
| 1777421660 | 23.89° C | 44% | 1018.1 hPa | 0 mm | - | 293 W/m² | - |
| 1777421355 | 23.89° C | 45% | 1017.6 hPa | 0 mm | - | 54 W/m² | - |
| 1777421052 | 24.44° C | 45% | 1017.8 hPa | 0 mm | - | 54 W/m² | - |
| 1777420749 | 24.44° C | 44% | 1017.8 hPa | 0 mm | - | 56 W/m² | - |
| 1777420445 | 23.89° C | 45% | 1018 hPa | 0 mm | - | 70 W/m² | - |
| 1777420141 | 25° C | 44% | 1018.1 hPa | 0 mm | - | 70 W/m² | - |
* Rain latest hour (hover to see other rain measurements)
** Current wind speed in m/s (hover to see current wind gust speed)